• In Deutschland
  • Länderverzeichnis
  • Für 7 Tage
  • Wassertemperatur
  • Satellitenkarten
  • Wetterkarte
  • Widgets
  • user-avatar
    Anmelden

    Stündliche Wetter Allensbach

    Heute, 19 September, Mittwoch

    Zeit Temperatur Niederschläge Wind Luftdruck Luftfeuchtigkeit
    00:00 +16°C° 0 mm 1 m/S 726 mmHg 83%
    01:00 +16°C° 0 mm 1 m/S 726 mmHg 83%
    02:00 +16°C° 0 mm 1 m/S 726 mmHg 83%
    03:00 +16°C° 0 mm 1 m/S 726 mmHg 83%
    04:00 +16°C° 0 mm 1 m/S 726 mmHg 83%
    05:00 +16°C° 0 mm 1 m/S 726 mmHg 83%
    06:00 +16°C° 0 mm 1 m/S 726 mmHg 82%
    07:00 +16°C° 0 mm 1 m/S 726 mmHg 82%
    08:00 +19°C° 0 mm 1 m/S 726 mmHg 75%
    09:00 +22°C° 0 mm 1 m/S 727 mmHg 67%
    10:00 +24°C° 0 mm 1 m/S 727 mmHg 60%
    11:00 +25°C° 0 mm 1 m/S 727 mmHg 56%
    12:00 +26°C° 0 mm 1 m/S 727 mmHg 53%
    13:00 +28°C° 0 mm 1 m/S 727 mmHg 49%
    14:00 +27°C° 0 mm 1 m/S 727 mmHg 51%
    15:00 +27°C° 0 mm 1 m/S 727 mmHg 52%
    16:00 +27°C° 0 mm 1 m/S 726 mmHg 54%
    17:00 +25°C° 0 mm 1 m/S 726 mmHg 61%
    18:00 +23°C° 0 mm 1 m/S 726 mmHg 69%
    19:00 +20°C° 0 mm 1 m/S 727 mmHg 76%
    20:00 +19°C° 0 mm 1 m/S 727 mmHg 78%
    21:00 +19°C° 0 mm 1 m/S 727 mmHg 80%
    22:00 +18°C° 0 mm 1 m/S 727 mmHg 82%
    23:00 +18°C° 0 mm 1 m/S 727 mmHg 83%

    Morgen, 20 September, Donnerstag

    Zeit Temperatur Niederschläge Wind Luftdruck Luftfeuchtigkeit
    00:00 +18°C° 0 mm 1 m/S 727 mmHg 84%
    01:00 +16°C° 0 mm 1 m/S 727 mmHg 84%
    02:00 +16°C° 0 mm 1 m/S 727 mmHg 85%
    03:00 +16°C° 0 mm 1 m/S 726 mmHg 85%
    04:00 +15°C° 0 mm 1 m/S 726 mmHg 85%
    05:00 +16°C° 0 mm 1 m/S 726 mmHg 85%
    06:00 +16°C° 0 mm 1 m/S 727 mmHg 85%
    07:00 +16°C° 0 mm 1 m/S 727 mmHg 84%
    08:00 +19°C° 0 mm 1 m/S 727 mmHg 77%
    09:00 +22°C° 0 mm 1 m/S 727 mmHg 70%
    10:00 +22°C° 0 mm 0 m/S 727 mmHg 62%
    11:00 +25°C° 0 mm 1 m/S 727 mmHg 59%
    12:00 +27°C° 0 mm 1 m/S 726 mmHg 56%
    13:00 +28°C° 0 mm 1 m/S 726 mmHg 52%
    14:00 +28°C° 0 mm 1 m/S 726 mmHg 54%
    15:00 +27°C° 0 mm 1 m/S 725 mmHg 55%
    16:00 +27°C° 0 mm 1 m/S 725 mmHg 56%
    17:00 +25°C° 0 mm 1 m/S 725 mmHg 65%
    18:00 +22°C° 0 mm 1 m/S 725 mmHg 73%
    19:00 +20°C° 0 mm 1 m/S 724 mmHg 82%
    20:00 +19°C° 0 mm 1 m/S 724 mmHg 84%
    21:00 +19°C° 0 mm 1 m/S 724 mmHg 85%
    22:00 +18°C° 0 mm 1 m/S 724 mmHg 87%
    23:00 +18°C° 0 mm 1 m/S 724 mmHg 87%

    übermorgen, 21 September, Freitag

    Zeit Temperatur Niederschläge Wind Luftdruck Luftfeuchtigkeit
    00:00 +18°C° 0 mm 1 m/S 724 mmHg 87%
    01:00 +16°C° 0 mm 1 m/S 724 mmHg 88%
    02:00 +16°C° 0 mm 1 m/S 723 mmHg 87%
    03:00 +16°C° 0 mm 1 m/S 723 mmHg 87%
    04:00 +16°C° 0 mm 1 m/S 723 mmHg 87%
    05:00 +16°C° 0 mm 2 m/S 722 mmHg 86%
    06:00 +16°C° 0 mm 2 m/S 722 mmHg 85%
    07:00 +16°C° 0 mm 2 m/S 722 mmHg 85%
    08:00 +19°C° 0 mm 2 m/S 722 mmHg 76%
    09:00 +21°C° 0 mm 2 m/S 722 mmHg 67%
    10:00 +25°C° 0 mm 3 m/S 722 mmHg 59%
    11:00 +26°C° 0 mm 3 m/S 722 mmHg 56%
    12:00 +27°C° 0 mm 4 m/S 721 mmHg 54%
    13:00 +28°C° 0 mm 4 m/S 721 mmHg 51%
    14:00 +27°C° 0 mm 4 m/S 720 mmHg 54%
    15:00 +27°C° 0 mm 4 m/S 720 mmHg 56%
    16:00 +26°C° 0 mm 3 m/S 719 mmHg 59%
    17:00 +22°C° 1.2 mm 4 m/S 720 mmHg 70%
    18:00 +20°C° 1.2 mm 5 m/S 721 mmHg 81%
    19:00 +16°C° 1.2 mm 5 m/S 722 mmHg 92%
    20:00 +14°C° 2.3 mm 5 m/S 723 mmHg 92%
    21:00 +13°C° 2.3 mm 4 m/S 724 mmHg 92%
    22:00 +12°C° 2.3 mm 4 m/S 725 mmHg 92%
    23:00 +11°C° 0.8 mm 3 m/S 725 mmHg 93%

    22 September, Samstag

    Zeit Temperatur Niederschläge Wind Luftdruck Luftfeuchtigkeit
    00:00 +10°C° 0.8 mm 3 m/S 726 mmHg 93%
    01:00 +10°C° 0.8 mm 2 m/S 726 mmHg 94%
    02:00 +9°C° 0.1 mm 2 m/S 727 mmHg 94%
    03:00 +9°C° 0.1 mm 2 m/S 727 mmHg 95%
    04:00 +10°C° 0.1 mm 1 m/S 728 mmHg 95%
    05:00 +9°C° 0 mm 1 m/S 728 mmHg 95%
    06:00 +9°C° 0 mm 1 m/S 728 mmHg 95%
    07:00 +8°C° 0 mm 0 m/S 728 mmHg 95%
    08:00 +11°C° 0 mm 1 m/S 728 mmHg 86%
    09:00 +13°C° 0 mm 1 m/S 729 mmHg 77%
    10:00 +14°C° 0 mm 1 m/S 729 mmHg 69%
    11:00 +15°C° 0 mm 1 m/S 728 mmHg 62%
    12:00 +16°C° 0 mm 1 m/S 728 mmHg 55%
    13:00 +17°C° 0 mm 2 m/S 728 mmHg 48%
    14:00 +17°C° 0 mm 2 m/S 727 mmHg 48%
    15:00 +17°C° 0 mm 2 m/S 727 mmHg 49%
    16:00 +17°C° 0 mm 2 m/S 727 mmHg 49%
    17:00 +15°C° 0 mm 1 m/S 727 mmHg 55%
    18:00 +13°C° 0 mm 1 m/S 727 mmHg 61%
    19:00 +11°C° 0 mm 1 m/S 727 mmHg 67%
    20:00 +11°C° 0 mm 1 m/S 728 mmHg 70%
    21:00 +10°C° 0 mm 1 m/S 728 mmHg 72%
    22:00 +9°C° 0 mm 1 m/S 728 mmHg 74%
    23:00 +8°C° 0 mm 0 m/S 727 mmHg 74%

    23 September, Sonntag

    Zeit Temperatur Niederschläge Wind Luftdruck Luftfeuchtigkeit
    00:00 +8°C° 0 mm 0 m/S 727 mmHg 75%
    01:00 +8°C° 0 mm 0 m/S 726 mmHg 75%
    02:00 +9°C° 0 mm 1 m/S 726 mmHg 74%
    03:00 +10°C° 0 mm 1 m/S 726 mmHg 74%
    04:00 +10°C° 0 mm 1 m/S 725 mmHg 74%
    05:00 +10°C° 0 mm 1 m/S 724 mmHg 74%
    06:00 +10°C° 0 mm 1 m/S 724 mmHg 74%
    07:00 +10°C° 0 mm 2 m/S 723 mmHg 75%
    08:00 +13°C° 0 mm 2 m/S 723 mmHg 67%
    09:00 +16°C° 0 mm 2 m/S 722 mmHg 60%
    10:00 +19°C° 0 mm 3 m/S 722 mmHg 52%
    11:00 +20°C° 0 mm 3 m/S 721 mmHg 51%
    12:00 +22°C° 0 mm 4 m/S 720 mmHg 51%
    13:00 +23°C° 0 mm 5 m/S 719 mmHg 50%
    14:00 +25°C° 0 mm 5 m/S 718 mmHg 52%
    15:00 +26°C° 0 mm 4 m/S 717 mmHg 54%
    16:00 +26°C° 0 mm 4 m/S 716 mmHg 56%
    17:00 +23°C° 0.2 mm 5 m/S 715 mmHg 63%
    18:00 +22°C° 0.2 mm 6 m/S 715 mmHg 71%
    19:00 +20°C° 0.2 mm 6 m/S 714 mmHg 78%
    20:00 +16°C° 2.6 mm 8 m/S 715 mmHg 81%
    21:00 +12°C° 2.6 mm 9 m/S 716 mmHg 84%
    22:00 +8°C° 2.6 mm 10 m/S 716 mmHg 88%
    23:00 +8°C° 0.4 mm 11 m/S 717 mmHg 82%

    24 September, Montag

    Zeit Temperatur Niederschläge Wind Luftdruck Luftfeuchtigkeit
    00:00 +8°C° 0.4 mm 12 m/S 718 mmHg 77%
    01:00 +8°C° 0.4 mm 12 m/S 719 mmHg 72%
    02:00 +7°C° 0.2 mm 12 m/S 719 mmHg 75%
    03:00 +7°C° 0.2 mm 11 m/S 719 mmHg 78%
    04:00 +7°C° 0.2 mm 11 m/S 720 mmHg 81%
    05:00 +6°C° 0.6 mm 10 m/S 721 mmHg 85%
    06:00 +6°C° 0.6 mm 10 m/S 721 mmHg 88%
    07:00 +5°C° 0.6 mm 9 m/S 722 mmHg 91%
    08:00 +5°C° 0.9 mm 9 m/S 722 mmHg 91%
    09:00 +5°C° 0.9 mm 9 m/S 723 mmHg 91%
    10:00 +5°C° 0.9 mm 8 m/S 724 mmHg 92%
    11:00 +5°C° 0.8 mm 8 m/S 724 mmHg 91%
    12:00 +5°C° 0.8 mm 8 m/S 725 mmHg 90%
    13:00 +6°C° 0.8 mm 7 m/S 725 mmHg 90%
    14:00 +6°C° 0.6 mm 7 m/S 726 mmHg 88%
    15:00 +6°C° 0.6 mm 7 m/S 726 mmHg 87%
    16:00 +8°C° 0.6 mm 7 m/S 726 mmHg 85%
    17:00 +7°C° 0.4 mm 6 m/S 727 mmHg 87%
    18:00 +6°C° 0.4 mm 5 m/S 728 mmHg 88%
    19:00 +6°C° 0.4 mm 5 m/S 728 mmHg 89%
    20:00 +6°C° 0.3 mm 5 m/S 728 mmHg 90%
    21:00 +6°C° 0.3 mm 5 m/S 729 mmHg 91%
    22:00 +6°C° 0.3 mm 4 m/S 729 mmHg 91%
    23:00 +5°C° 0.2 mm 4 m/S 730 mmHg 92%
    Mehr zeigen